Jacksonville, FL

5:52 AM EST on January 20, 2017 (GMT -0500)
Cecil

Weather History for KVQQ - April, 2014

Change the Weather History Date:

Sunday, April 20, 2014

  Actual Average (KNIP) Record (KNIP)
Temperature  
Mean Temperature 58 °F -  
Max Temperature 62 °F 78 °F 91 °F (2002)
Min Temperature 53 °F 61 °F 51 °F (2001)
Degree Days  
Heating Degree Days 8    
Growing Degree Days 8 (Base 50)    
Moisture  
Dew Point 55 °F    
Average Humidity 92    
Maximum Humidity 100    
Minimum Humidity 77    
Precipitation  
Precipitation 0.00 in - - ()
Sea Level Pressure  
Sea Level Pressure 30.07 in    
Wind  
Wind Speed 8 mph (North)    
Max Wind Speed 14 mph    
Max Gust Speed 16 mph    
Visibility 8 miles    
Events Rain    
Averages and records for this station are not official NWS values.
T = Trace of Precipitation, MM = Missing Value Source: NWS Daily Summary

Daily Weather History Graph

Daily Weather History Graph

Search for Another Location

Airport or City:

Trip Planner

Search our weather history database for the weather conditions in past years. The results will help you decide how hot, cold, wet, or windy it might be!

Date:

Astronomy

Apr. 20, 2014 Rise Set
Actual Time 6:55 AM EDT 7:58 PM EDT
Civil Twilight 6:30 AM EDT 8:23 PM EDT
Nautical Twilight 6:00 AM EDT 8:52 PM EDT
Astronomical Twilight 5:30 AM EDT 9:22 PM EDT
Moon 12:28 AM EDT 11:22 AM EDT
Length of Visible Light 13h 52m
Length of Day
13h 03m
Waning Gibbous, 69% of the Moon is Illuminated
Apr 20
Waning Gibbous
Apr 22
Last Quarter
Apr 29
New
May 6
First Quarter
May 14
Full

Hourly Weather History & Observations

Time (EDT) Temp. Dew Point Humidity Pressure Visibility Wind Dir Wind Speed Gust Speed Precip Events Conditions
12:15 AM 59.0 °F 57.2 °F 94% 30.00 in 10.0 mi North 8.1 mph 16.1 mph N/A   Overcast
12:35 AM 57.2 °F 57.2 °F 100% 30.00 in 10.0 mi North 10.4 mph - N/A   Mostly Cloudy
12:55 AM 57.2 °F 57.2 °F 100% 30.01 in 10.0 mi North 9.2 mph - N/A   Mostly Cloudy
1:15 AM 57.2 °F 57.2 °F 100% 30.00 in 10.0 mi North 10.4 mph - N/A   Scattered Clouds
1:35 AM 57.2 °F 57.2 °F 100% 30.00 in 10.0 mi North 8.1 mph - N/A   Scattered Clouds
1:55 AM 57.2 °F 57.2 °F 100% 30.01 in 10.0 mi North 10.4 mph - N/A   Mostly Cloudy
2:15 AM 57.2 °F 55.4 °F 94% 30.01 in 10.0 mi North 8.1 mph - N/A   Overcast
2:35 AM 57.2 °F 55.4 °F 94% 30.01 in 10.0 mi North 6.9 mph - N/A   Overcast
2:55 AM 57.2 °F 55.4 °F 94% 30.01 in 10.0 mi North 9.2 mph - N/A   Overcast
3:15 AM 57.2 °F 55.4 °F 94% 30.01 in 10.0 mi North 9.2 mph - N/A   Overcast
3:35 AM 57.2 °F 55.4 °F 94% 30.01 in 10.0 mi North 9.2 mph - N/A   Overcast
3:55 AM 57.2 °F 55.4 °F 94% 30.01 in 10.0 mi North 6.9 mph - N/A   Overcast
4:15 AM 55.4 °F 55.4 °F 100% 30.01 in 5.0 mi North 11.5 mph - N/A   Overcast
4:35 AM 55.4 °F 55.4 °F 100% 30.01 in 2.5 mi North 9.2 mph - N/A Rain Light Rain
4:55 AM 55.4 °F 55.4 °F 100% 30.02 in 2.5 mi NNW 8.1 mph - N/A   Overcast
5:15 AM 55.4 °F 55.4 °F 100% 30.02 in 5.0 mi North 6.9 mph - N/A   Overcast
5:35 AM 55.4 °F 55.4 °F 100% 30.03 in 8.0 mi NNW 8.1 mph - N/A   Overcast
5:55 AM 55.4 °F 53.6 °F 94% 30.03 in 2.0 mi NNW 9.2 mph - N/A Rain Light Rain
6:15 AM 55.4 °F 53.6 °F 94% 30.04 in 8.0 mi NNW 8.1 mph - N/A   Overcast
6:35 AM 55.4 °F 53.6 °F 94% 30.05 in 1.2 mi NNW 11.5 mph - N/A Rain Light Rain
6:50 AM 55.4 °F 53.6 °F 94% 30.05 in 2.0 mi North 11.5 mph - N/A Rain Light Rain
7:50 AM 53.6 °F 53.6 °F 100% 30.07 in 2.0 mi North 5.8 mph - N/A Rain Light Rain
8:50 AM 53.6 °F 51.8 °F 94% 30.09 in 3.0 mi North 11.5 mph - N/A   Overcast
9:50 AM 55.4 °F 53.6 °F 94% 30.12 in 3.0 mi North 8.1 mph - N/A   Overcast
10:50 AM 57.2 °F 53.6 °F 88% 30.12 in 5.0 mi North 6.9 mph - N/A   Overcast
11:50 AM 57.2 °F 53.6 °F 88% 30.12 in 7.0 mi North 5.8 mph - N/A   Overcast
12:50 PM 59.0 °F 53.6 °F 82% 30.12 in 7.0 mi North 5.8 mph - N/A   Overcast
2:50 PM 60.8 °F 55.4 °F 82% 30.11 in 7.0 mi North 13.8 mph - N/A   Overcast
3:50 PM 62.6 °F 55.4 °F 77% 30.09 in 7.0 mi North 13.8 mph - N/A   Overcast
5:50 PM 59.0 °F 53.6 °F 82% 30.09 in 7.0 mi North 10.4 mph - N/A   Overcast
6:50 PM 59.0 °F 53.6 °F 82% 30.10 in 7.0 mi North 11.5 mph - N/A   Mostly Cloudy
7:50 PM 59.0 °F 55.4 °F 88% 30.10 in 7.0 mi North 5.8 mph - N/A   Overcast
8:15 PM 59.0 °F 55.4 °F 88% 30.11 in 10.0 mi North 5.8 mph - N/A   Overcast
8:35 PM 59.0 °F 55.4 °F 88% 30.11 in 10.0 mi NNW 4.6 mph - N/A   Overcast
8:55 PM 59.0 °F 55.4 °F 88% 30.12 in 10.0 mi Calm Calm - N/A   Mostly Cloudy
9:15 PM 59.0 °F 55.4 °F 88% 30.11 in 10.0 mi NW 3.5 mph - N/A   Overcast
9:35 PM 59.0 °F 55.4 °F 88% 30.12 in 10.0 mi Calm Calm - N/A   Overcast
9:55 PM 59.0 °F 55.4 °F 88% 30.12 in 10.0 mi North 3.5 mph - N/A   Overcast
10:15 PM 59.0 °F 55.4 °F 88% 30.13 in 5.0 mi NW 3.5 mph - N/A   Overcast
10:35 PM 59.0 °F 55.4 °F 88% 30.12 in 10.0 mi WNW 3.5 mph - N/A   Overcast
10:55 PM 59.0 °F 55.4 °F 88% 30.12 in 10.0 mi Calm Calm - N/A   Overcast
11:15 PM 59.0 °F 55.4 °F 88% 30.12 in 10.0 mi Calm Calm - N/A   Overcast
11:35 PM 59.0 °F 55.4 °F 88% 30.12 in 10.0 mi WNW 3.5 mph - N/A   Mostly Cloudy
11:55 PM 59.0 °F 55.4 °F 88% 30.12 in 10.0 mi West 3.5 mph - N/A   Mostly Cloudy